Regional Weather Roundup
Issued by NWS Austin/San Antonio, TX

Current Version | Previous Version | Text Only | Print | Product List | Glossary On
Versions: 1 2 3 4 5 6 7 8 9 10 11 12 13 14 15 16 17 18 19 20 21 22 23 24 25 26 27 28 29 30 31 32 33 34 35 36 37 38 39 40 41 42 43 44 45 46 47 48 49 50
000
ASUS44 KEWX 292013
RWREWX
SOUTH TEXAS REGIONAL WEATHER ROUNDUP
NATIONAL WEATHER SERVICE AUSTIN/SAN ANTONIO TX
300 PM CDT THU SEP 29 2022

NOTE: "FAIR" INDICATED FEW OR NO CLOUDS BELOW 12,000 FEET WITH NO
SIGNIFICANT WEATHER AND/OR OBSTRUCTIONS TO VISIBILITY.

* - THESE STATIONS ARE NOT NWS OR FAA STATIONS...AND ARE NOT SUBJECT
    TO NWS AND FAA QUALITY CONTROL.

TXZ171-172-183>190-292100-
TEXAS HILL COUNTRY AND EDWARDS PLATEAU

CITY           SKY/WX    TMP DP  RH WIND       PRES   REMARKS
JUNCTION       SUNNY     89  46  22 VRB6      30.16F
*LLANO         SUNNY     90  43  19 W8G15     30.13F
BURNET         SUNNY     89  46  22 W7        30.15F
*HORSESHOE BAY SUNNY     89  43  19 NW3       30.14F
*LAGO VISTA      N/A     93  47  20 SE5       30.14F
*KERRVILLE     SUNNY     88  44  21 SE6       30.15F
*FREDERICKSBRG SUNNY     86  47  25 CALM      30.16F
*ROCKSPRINGS   SUNNY     82  45  26 CALM      30.25F
*BOERNE        SUNNY     86  41  20 SW5       30.14F
*CASTROVILLE   SUNNY     91  39  16 S5        30.14
HONDO          SUNNY     90  49  24 W8        30.13F
*UVALDE        SUNNY     87  48  26 SW7       30.17F
DEL RIO        SUNNY     88  49  25 S14       30.14F
*LAUGHLIN AFB  SUNNY     86  47  25 S5        30.12F
*SPOFFORD      NOT AVBL
CARRIZO SPRGS  SUNNY     88  50  27 NE5       30.12F
*FAITH RANCH   SUNNY     88  50  27 VRB7      30.15F
$$

TXZ173-191>194-202-209-217>225-228-292100-
CENTRAL AND SOUTH CENTRAL TEXAS

CITY           SKY/WX    TMP DP  RH WIND       PRES   REMARKS
GEORGETOWN     SUNNY     90  49  24 VRB3      30.13F
*TAYLOR        SUNNY     89  47  24 NE6       30.11F
AUSTIN/BERGSTM SUNNY     89  48  24 SW3       30.10F
AUSTIN/MABRY   SUNNY     92  49  22 VRB5      30.12F
*PFLUGERVILLE  SUNNY     88  43  20 W3        30.11F
SAN MARCOS     SUNNY     89  46  22 VRB7      30.15F
NEW BRAUNFELS  SUNNY     91  48  22 CALM      30.10F
*RANDOLPH AFB  NOT AVBL
*SEGUIN        NOT AVBL
SAN ANTONIO    SUNNY     91  46  21 VRB3      30.12F
STINSON FIELD  SUNNY     90  48  23 VRB6      30.09F
*KELLY FIELD   NOT AVBL
*PLEASANTON    SUNNY     91  49  23 N7        30.12F
*KENEDY        SUNNY     89  52  28 W6        30.12F
*LA GRANGE     NOT AVBL
*GIDDINGS      SUNNY     87  45  23 NW6       30.12F
*GONZALES      SUNNY     90  50  25 CALM      30.10F
$$

TXZ163>164-176>182-195>201-210>213-226-227-235-292100-
SOUTHEAST TEXAS

CITY           SKY/WX    TMP DP  RH WIND       PRES   REMARKS
COLLEGE STN    SUNNY     86  48  26 CALM      30.11F
*BRYAN         SUNNY     84  47  27 CALM      30.14F
*CALDWELL      SUNNY     84  48  28 S3        30.12F
*CROCKETT      SUNNY     82  41  23 N12       30.13F
*BRENHAM       SUNNY     86  47  25 N3        30.23S
HUNTSVILLE     SUNNY     83  46  27 VRB3      30.12F
CONROE         SUNNY     82  49  31 NE8       30.12F
HOUSTON BUSH   SUNNY     83  47  28 E8        30.11F
HOUSTON HOBBY  SUNNY     83  42  23 N7        30.10F
*HOUSTON SW AP NOT AVBL
PEARLAND       SUNNY     83  43  24 NE10      30.12F
HOUSTON HOOKS  SUNNY     84  47  27 MISG      30.11F
ELLINGTON FLD  SUNNY     81  41  24 N8        30.14
SUGAR LAND     SUNNY     86  45  23 SW8       30.10F
*HOUSTON EXEC  SUNNY     82  48  30 VRB6      30.13F
*CLEVELAND MUN NOT AVBL
*WHARTON       SUNNY     85  46  25 E5        30.12F
*COLUMBUS      FAIR      86  48  26 NW3       30.12F
*EAGLE LAKE    SUNNY     85  48  27 SW3       30.11F
$$

TXZ214>216-236>238-292100-
THE UPPER TEXAS COAST

CITY           SKY/WX    TMP DP  RH WIND       PRES   REMARKS
*ORANGE        SUNNY     83  38  20 N8        30.11F
PORT ARTHUR    SUNNY     81  44  27 N18       30.08F
GALVESTON      SUNNY     78  46  32 N10       30.12F
ANGLETON       SUNNY     85  47  26 N9        30.10F
*BAY CITY      SUNNY     83  51  33 N7        30.11F
PALACIOS       SUNNY     87  51  28 N12       30.10F
$$

TXZ229>234-239>247-292100-
TEXAS COASTAL BEND AND RIO GRANDE PLAINS

CITY           SKY/WX    TMP DP  RH WIND       PRES   REMARKS
VICTORIA       SUNNY     90  51  26 VRB7      30.11F
*BEEVILLE      SUNNY     87  49  26 N5        30.11F
ROCKPORT       SUNNY     85  63  47 E8        30.11F
*PORT ARANSAS  SUNNY    N/A N/A N/A E8        30.13F
*PORT LAVACA   SUNNY     87  47  24 E12       30.12F
*INGLESIDE     SUNNY     88  54  31 E9        30.10F
CORPUS CHRISTI MOSUNNY   91  59  33 NE8       30.11F HX  90
CORPUS NAS     NOT AVBL
*ROBSTOWN      SUNNY     88  53  30 MISG      30.11F
ALICE          SUNNY     89  55  31 NE5       30.11F
KINGSVILLE NAS MOSUNNY   89  55  31 CALM      30.10F
COTULLA        SUNNY     91  52  26 VRB3      30.12F
LAREDO         SUNNY     89  55  31 NE6       30.12F
$$

TXZ248>255-292100-
DEEP SOUTH TEXAS

CITY           SKY/WX    TMP DP  RH WIND       PRES   REMARKS
BROWNSVILLE    MOSUNNY   86  66  51 NE14G22   30.09F
PORT ISABEL    MOSUNNY   86  68  54 N16G25    30.10F
HARLINGEN      SUNNY     89  60  37 NE10G18   30.09F
*HEBBRONVILLE  SUNNY     87  55  33 SE3       30.14F
MCALLEN        PTSUNNY   88  59  37 VRB7G17   30.10F
*WESLACO       MOSUNNY   87  60  40 N8G17     30.10F
FALFURRIAS     MOSUNNY   87  57  35 NE9       30.11F
EDINBURG       PTSUNNY   88  59  37 NE5       30.10F
*ZAPATA        SUNNY     89  57  33 CALM      30.13F
$$

TXZ213>215-236>238-242>244-246-247-251-254-255-292100-
CMAN STATIONS

STATION/POSITION TIME  TEMP    WIND        PRES    WAVE
                       AIR SEA DIR/SP/G            HT/PER
                 (UTC) (F)     (DEG/KT/KT) (MB)    (FT/S)
SEA RIM ST PARK  2000   77      10/  7/  9 1018.9
NORTH JETTY/GLS  1918   73 79  350/  8/ 12 1019.0
EAGLE POINT      1924   73 77   40/  7/  9 1019.8
MORGANS POINT    1924   77 81  320/  7/ 11 1019.5
MISSION/ARANSAS  1900   79     150/  8     1021.0
PORT O`CONNOR    1930   79 87   40/  1/  4 1020.0
PORT ARANSAS     2000   79      60/  8/  9   N/A
BAFFIN BAY       1930   81 83   10/  8/ 10 1020.5
PORT ISABEL      1930   81 82   10/ 14/ 19 1018.9
$$



USA.gov is the U.S. government's official web portal to all federal, state and local government web resources and services.